Preview of NWS' New Version of Forecast
This preview is not operational and should not be used for support decisions.

Regional Weather Roundup (RWR)

Issued by National Weather Service (NWS)

                            
000
NZUS52 KFFC 171910
RWROBS
WEATHER ROUNDUP FOR GEORGIA
NATIONAL WEATHER SERVICE PEACHTREE CITY GA
200 PM EST MON DEC 17 2018

NOTE: "FAIR" INDICATES FEW OR NO CLOUDS BELOW 12,000 FEET WITH NO
SIGNIFICANT WEATHER AND/OR OBSTRUCTIONS TO VISIBILITY. 

* = USE WITH CAUTION. THE STATIONS MARKED WITH AN ASTERISK MAY NOT
REPORT WEATHER SUCH AS PRECIPITATION, FOG, OR THUNDER AND ARE NOT 
QUALITY CONTROLLED BY NWS.

THE REMARK "TC" DENOTES TEMPERATURE READING IN DEGREES CELSIUS.

GAZ001>058-172000-
NORTH GEORGIA
  
CITY           SKY/WX    TMP DP  RH WIND       PRES   REMARKS
ATLANTA        FAIR      61  31  32 NW15G22   30.10F                  
ATHENS         FAIR      65  30  27 W7        30.05F                  
CHAMBLEE       FAIR      60  32  34 NW14G23   30.10F                  
PEACHTREE CITY FAIR      63  33  32 NW9       30.12F                  
ROME           FAIR      61  36  39 NW7       30.14F                  
WEST ATLANTA   FAIR      61  32  33 W14       30.11F                  
GAINESVILLE    FAIR      60  35  39 W12       30.08F                  
CARTERSVILLE   FAIR      59  34  39 VRB3      30.15F                  
BLAIRSVILLE    FAIR      55  31  40 N5        30.11F                  
DECATUR        FAIR      52  44  74 N3        30.20F                  
CLEMSON        FAIR      65  32  29 W9        30.02F                  
GREENVILLE     FAIR      64  27  24 NW9       30.03F                  
FLORENCE       NOT AVBL                                               
CHARLESTON     FAIR      61  47  59 W5        30.04F                  
MYRTLE BEACH   FAIR      62  45  53 W13       30.01F                  
FAYETTEVILLE   FAIR      65  37  35 W12       29.96F                  
WILMINGTON     FAIR      64  42  44 W14       29.96F                  
RALEIGH        FAIR      60  33  36 W13       29.95F                  
DALTON         FAIR      59  37  44 NW6       30.16F                  
LAWRENCEVILLE  FAIR      61  30  31 W12G17    30.08F                  
MARIETTA       SUNNY     60  30  32 NW16      30.11F                  
KENNESAW       FAIR      58  33  39 NW9G17    30.13F                  
WINDER         NOT AVBL                                               
CANTON         FAIR      59  27  29 NW10G20   30.13F                  
TOCCOA         FAIR      68  27  21 W6        30.03F                  
CORNELIA       FAIR      62  24  23 N14       30.05F                  
JASPER         NOT AVBL                                               
CHARLOTTE      FAIR      65  26  23 NW9       30.00F                  
$$

GAZ059>098-102>109-172000-
OTHER STATIONS
  
CITY           SKY/WX    TMP DP  RH WIND       PRES   REMARKS
AUGUSTA-BUSH   FAIR      67  42  40 SW7       30.02F                  
AUGUSTA-DANIEL FAIR      66  37  34 VRB5      30.03F                  
COLUMBUS       FAIR      65  36  34 NW8       30.13F                  
MACON          FAIR      69  35  28 NW8       30.08F                  
ROBINS AFB     FAIR      69  35  28 NW8       30.08F                  
GREENSBORO     FAIR      66  36  32 W7        30.03F                  
THOMSON        FAIR      66  36  33 NW9       30.08F                  
SANDERSVILLE   NOT AVBL                                               
THOMASTON      FAIR      63  28  27 NW9       30.12F                  
BUTLER         NOT AVBL                                               
LAGRANGE       FAIR      64  38  37 W7        30.13F                  
MILLEDGEVILLE  FAIR      64  37  36 W12       30.07F                  
CARROLLTON     FAIR      60  33  36 NW9       30.16F                  
AMERICUS       FAIR      68  32  26 NW9       30.13F                  
CORDELE        FAIR      65  39  39 W5        30.12F                  
SAVANNAH       FAIR      59  47  64 W5        30.08F                  
NEW BERN       FAIR      62  40  44 NW13      29.92F HAZE             
HUNTSVILLE     FAIR      54  42  64 W5        30.19F                  
$$

GAZ099>101-110>166-172000-
OTHER STATIONS
  
CITY           SKY/WX    TMP DP  RH WIND       PRES   REMARKS
VALDOSTA       FAIR      63  49  60 VRB3      30.12F                  
ALMA           FAIR      58  47  66 W7        30.10F                  
ST SIMONS      FAIR      58  48  69 W8        30.09F                  
FT STEWART     NOT AVBL                                               
ALBANY         FAIR      64  43  46 W7        30.14F                  
HUNTER AFB     FAIR      57  53  85 W3        30.05F                  
MOODY AFB      FAIR      62  50  65 NW5       30.10F                  
BRUNSWICK      FAIR      54  48  82 W5        30.10F                  
BAINBRIDGE       N/A     64  43  45 NW7       30.15F                  
MOULTRIE       FAIR      61  45  55 NW3       30.13F                  
VIDALIA        FAIR      63  45  51 W7        30.09F                  
WAYCROSS       FAIR      58  52  80 W6        30.10F                  
DOUGLAS        FAIR      60  48  64 SW6       30.12F                  
TIFTON         FAIR      59  45  60 S3        30.11F                  
HAZELHURST     FAIR      62  48  58 CALM      30.09F                  
COLUMBIA       FAIR      65  46  50 SW8       30.00F                  
RALEIGH        FAIR      60  33  36 W13       29.95F                  
GREENSBORO     FAIR      59  32  36 W14       29.96F                  
HICKORY        FAIR      60  28  29 NW9       30.00F                  
ASHEVILLE      FAIR      54  28  36 N20G29    30.06F                  
KNOXVILLE      FAIR      52  39  61 SW6       30.15F                  
NASHVILLE      FAIR      57  31  37 W5        30.19F                  
JACKSONMS      PTSUNNY   64  42  44 VRB3      30.22F                  
TUPELO         NOT AVBL                                               
GREENWOOD      FAIR      61  48  62 CALM      30.22F                  
MERIDIAN       FAIR      67  48  50 W8        30.21F                  
NEW ORLEANS    PTSUNNY   60  51  72 CALM      30.26F                  
$$